15 daagse weersverwachting Rovaniemi (FI)

  • Overzicht
  • Per uur
  • 15 dagen
  • Extra
  • Vergelijk
  • Kaarten
  • Dagkaart
  • Meer »
  • Info
  • Statistieken
  • Directe link
    Temp 6h Neerslag Wind  
Midzomernacht Vandaag
03:00
11°
 
1
09:00
16°
0.3 mm
3
15:00
16°
9.4 mm
3
21:00
14°
10.2 mm
5
Midzomernacht Morgen
03:00
11°
 
3
09:00
14°
2.8 mm
3
15:00
15°
3.0 mm
4
21:00
13°
28.3 mm
3
Midzomernacht Woensdag 20 Jun
03:00
10°
29.6 mm
3
09:00
11°
43.4 mm
3
15:00
12°
39.9 mm
5
21:00
11°
22.5 mm
3
Locatie info
Region: Lappi
Latitude: 66.5040°N
Longitude: 25.7291°E
92 masl
Postcode: 96200
Temp/Neerslag /Baro Onweer/Dauwpunt
    Temp Baro 1h Neerslag Dauwpunt Wind UV Bewolking  
Midzomernacht Vandaag
02:00
11°
1014.3 hPa   9.1°
1
Windvlaag: -0 km/h
36%
03:00
11°
1013.7 hPa   8.8°
1
Windvlaag: 0.9 km/h
70%
04:00
11°
1012.7 hPa   8.3°
2
Windvlaag: 1.2 km/h
86%
05:00
11°
1011.9 hPa   8.4°
2
Windvlaag: 1.6 km/h
84%
06:00
13°
1010.9 hPa   9.4°
2
Windvlaag: 1.7 km/h
80%
07:00
14°
1010.0 hPa   10.7°
3
Windvlaag: 1.8 km/h
76%
08:00
15°
1009.1 hPa
58%
12.1°
3
Windvlaag: 3 km/h
84%
09:00
16°
1008.0 hPa 0.3 mm
76%
10.6°
3
Windvlaag: 4.4 km/h
84%
10:00
17°
1006.9 hPa
80%
13.3°
3
Windvlaag: 1.9 km/h
86%
11:00
17°
1006.2 hPa
31%
14.4°
4
Windvlaag: 5.8 km/h
69%
12:00
17°
1005.3 hPa 0.2 mm
79%
14.7°
4
Windvlaag: 7.9 km/h
77%
13:00
17°
1004.4 hPa 0.9 mm
82%
14.9°
4
Windvlaag: 6.7 km/h
86% warningclass
14:00
16°
1003.8 hPa 2.6 mm
82%
15.2°
4
Windvlaag: 9 km/h
86% warningclass
15:00
16°
1003.1 hPa 5.6 mm
82%
14.3°
3
Windvlaag: 8.8 km/h
86%
16:00
15°
1002.7 hPa 3.7 mm
82%
14.0°
4
Windvlaag: 9.6 km/h
72%
17:00
15°
1002.3 hPa 2.9 mm
82%
13.2°
4
Windvlaag: 9.6 km/h
13%
18:00
16°
1002.1 hPa 3.6 mm
82%
13.2°
4
Windvlaag: 10.3 km/h
18%
19:00
15°
1001.7 hPa
80%
10.6°
4
Windvlaag: 10.5 km/h
40%
20:00
15°
1001.3 hPa
55%
9.7°
5
Windvlaag: 12 km/h
17%
21:00
14°
1001.1 hPa
28%
10.2°
5
Windvlaag: 12 km/h
18%
22:00
13°
1001.3 hPa
71%
10.2°
4
Windvlaag: 10.4 km/h
40%
23:00
12°
1001.5 hPa
23%
10.2°
4
Windvlaag: 10.4 km/h
33%
Midzomernacht Morgen
00:00
12°
1001.4 hPa
14%
10.2°
3
Windvlaag: 10 km/h
58%
01:00
11°
1001.4 hPa
27%
10.1°
3
Windvlaag: 9.9 km/h
65%
02:00
11°
1001.2 hPa
61%
9.8°
3
Windvlaag: 9.4 km/h
74%
03:00
11°
1001.0 hPa
18%
9.8°
3
Windvlaag: 8.2 km/h
75%
04:00
11°
1000.8 hPa
16%
10.1°
3
Windvlaag: 7.2 km/h
85%
05:00
12°
1000.4 hPa
14%
10.1°
3
Windvlaag: 6.3 km/h
83%
06:00
12°
999.9 hPa
14%
10.0°
3
Windvlaag: 7.1 km/h
80%
07:00
13°
999.2 hPa
66%
10.1°
3
Windvlaag: 7.1 km/h
42%
08:00
13°
998.5 hPa
81%
11.2°
3
Windvlaag: 6.1 km/h
12%
09:00
14°
997.8 hPa 2.8 mm
82%
10.9°
3
Windvlaag: 6.3 km/h
19%
10:00
14°
997.3 hPa
82%
10.2°
3
Windvlaag: 6.2 km/h
61%
11:00
15°
996.9 hPa 3.0 mm
82%
9.6°
4
Windvlaag: 6.3 km/h
70%
12:00
16°
996.2 hPa
76%
10.6°
3
Windvlaag: 5.9 km/h
76%
13:00
14°
995.9 hPa
72%
12.2°
4
Windvlaag: 7 km/h
70%
14:00
15°
995.0 hPa
79%
13.3°
4
Windvlaag: 5.6 km/h
69%
15:00
15°
994.0 hPa
68%
13.0°
4
Windvlaag: 5.7 km/h
86%
16:00
15°
993.7 hPa
35%
10.8°
4
Windvlaag: 5.8 km/h
85%
17:00
15°
992.7 hPa
25%
10.4°
3
Windvlaag: 4.8 km/h
86%
18:00
14°
989.7 hPa 8.4 mm
34%
11.1°
4
Windvlaag: 5.1 km/h
98%
19:00
14°
989.3 hPa 7.8 mm
93%
11.2°
3
Windvlaag: 5.5 km/h
90%
20:00
13°
989.3 hPa 7.2 mm
100%
10.9°
4
Windvlaag: 6.5 km/h
93%
21:00
13°
989.3 hPa 4.8 mm
100%
9.3°
3
Windvlaag: 4.4 km/h
92%
22:00
12°
989.4 hPa 5.0 mm
100%
8.1°
3
Windvlaag: 3.7 km/h
96%
23:00
12°
989.0 hPa 4.9 mm
100%
7.9°
3
Windvlaag: 1.8 km/h
92%
Midzomernacht Woensdag 20 Jun
00:00
11°
988.6 hPa 5.1 mm
100%
8.0°
3
Windvlaag: 0.9 km/h
94%
01:00
11°
988.4 hPa 4.8 mm
100%
8.2°
2
Windvlaag: 0.7 km/h
90%
02:00
11°
988.5 hPa 4.8 mm
100%
8.9°
3
Windvlaag: 1 km/h
90%
03:00
10°
988.6 hPa 5.0 mm
100%
8.1°
3
Windvlaag: 1.1 km/h
88%
04:00
10°
988.8 hPa 4.6 mm
100%
7.0°
3
Windvlaag: 1.2 km/h
88%
05:00
10°
988.7 hPa 7.5 mm
100%
5.8°
3
Windvlaag: 1.2 km/h
88%
06:00
10°
988.5 hPa 7.6 mm
80%
5.3°
3
Windvlaag: 1.4 km/h
88%
07:00
10°
988.5 hPa 7.8 mm
31%
4.9°
3
Windvlaag: 1.5 km/h
82%
08:00
11°
988.7 hPa 8.0 mm
22%
4.6°
3
Windvlaag: 1.2 km/h
88%
09:00
11°
988.8 hPa 8.0 mm
22%
4.0°
3
Windvlaag: 1.5 km/h
88%
10:00
11°
989.0 hPa 7.8 mm
27%
3.1°
4
Windvlaag: 1.1 km/h
88%
11:00
11°
989.4 hPa 7.6 mm
97%
2.0°
4
Windvlaag: 1.3 km/h
88%
12:00
11°
989.9 hPa 7.6 mm
100%
1.6°
4
Windvlaag: 1.5 km/h
88%
13:00
11°
990.4 hPa 7.6 mm
99%
1.6°
4
Windvlaag: 1.7 km/h
100%
14:00
11°
991.0 hPa 4.7 mm
100%
2.4°
4
Windvlaag: 2.1 km/h
100%
15:00
12°
991.4 hPa 4.6 mm
100%
2.9°
5
Windvlaag: 2.2 km/h
91%
16:00
13°
990.8 hPa
100%
4.7°
4
Windvlaag: 10.2 km/h
73%
17:00
12°
991.2 hPa 7.8 mm
100%
1.5°
5
Windvlaag: 10.2 km/h
90%
18:00
11°
991.4 hPa 7.4 mm
100%
2.0°
4
Windvlaag: 10.3 km/h
80%
19:00
11°
991.2 hPa 7.3 mm
100%
3.3°
4
Windvlaag: 9.3 km/h
93%
20:00
11°
991.1 hPa
98%
6.1°
4
Windvlaag: 10.9 km/h
62%
21:00
11°
991.0 hPa
91%
5.4°
3
Windvlaag: 9.1 km/h
53%
22:00
14°
994.6 hPa 22.7 mm
100%
8.2°
5
Windvlaag: 8.6 km/h
13%
23:00
13°
994.7 hPa 22.7 mm
100%
7.9°
4
Windvlaag: 9.3 km/h
43%
Midzomernacht Donderdag 21 Jun
00:00
12°
994.8 hPa 23.0 mm
100%
8.5°
3
Windvlaag: 8.8 km/h
13%
01:00
10°
994.9 hPa 23.0 mm
100%
7.4°
4
Windvlaag: 10.1 km/h
1%
Temp/Neerslag /Baro Onweer/Dauwpunt
    Temp Baro Neerslag Dauwpunt Wind Bewolking  
Midzomernacht Vandaag
03:00
11°
1013.7 hPa   8.8°
1
70%
06:00
13°
1010.9 hPa   9.4°
2
80%
09:00
16°
1008.0 hPa 0.3 mm 10.6°
3
84%
12:00
17°
1005.3 hPa 0.2 mm 14.7°
4
77%
15:00
16°
1003.1 hPa 9.2 mm 14.3°
3
86%
18:00
16°
1002.1 hPa 10.2 mm 13.2°
4
18%
21:00
14°
1001.1 hPa   10.2°
5
18%
Midzomernacht Morgen
00:00
12°
1001.4 hPa   10.2°
3
58%
03:00
11°
1001.0 hPa   9.8°
3
75%
06:00
12°
999.9 hPa   10.0°
3
80%
09:00
14°
997.8 hPa 2.8 mm 10.9°
3
19%
12:00
16°
996.2 hPa 3.0 mm 10.6°
3
76%
15:00
15°
994.0 hPa   13.0°
4
86%
18:00
14°
989.7 hPa 8.4 mm 11.1°
4
98%
21:00
13°
989.3 hPa 19.9 mm 9.3°
3
92%
Midzomernacht Woensdag 20 Jun
00:00
11°
988.6 hPa 15.0 mm 8.0°
3
94%
03:00
10°
988.6 hPa 14.6 mm 8.1°
3
88%
06:00
10°
988.5 hPa 19.7 mm 5.3°
3
88%
09:00
11°
988.8 hPa 23.7 mm 4.0°
3
88%
12:00
11°
989.9 hPa 23.0 mm 1.6°
4
88%
15:00
12°
991.4 hPa 16.9 mm 2.9°
5
91%
18:00
11°
991.4 hPa 15.2 mm 2.0°
4
80%
21:00
11°
991.0 hPa 7.3 mm 5.4°
3
53%
Midzomernacht Donderdag 21 Jun
00:00
12°
994.8 hPa 68.4 mm 8.5°
3
13%
03:00
Voelt als: 6.4°
995.6 hPa 69.1 mm 4.1°
4
0%
06:00
10°
996.6 hPa   4.1°
4
0%
09:00
15°
996.4 hPa   4.0°
5
0%
12:00
17°
996.9 hPa   2.7°
6
1%
15:00
17°
997.5 hPa   2.7°
4
1%
18:00
16°
997.8 hPa   4.1°
3
1%
21:00
13°
997.8 hPa   6.4°
3
1%
Midzomernacht Vrijdag 22 Jun
00:00
Voelt als: 7.9°
998.3 hPa 0.5 mm 8.0°
3
1%
03:00
Voelt als: 7.1°
998.7 hPa 2.3 mm 8.1°
3
1%
06:00
Voelt als: 6.8°
998.7 hPa 2.2 mm 8.0°
3
1%
09:00
10°
Voelt als: 9.6°
998.5 hPa 2.9 mm 8.8°
1
1%
12:00
13°
998.5 hPa 0.3 mm 9.5°
0
1%
15:00
14°
997.7 hPa 0.5 mm 8.1°
2
1%
18:00
15°
996.0 hPa   7.2°
4
1%
21:00
13°
995.0 hPa   6.9°
3
1%
Midzomernacht Zaterdag 23 Jun
00:00
11°
994.5 hPa   7.1°
4
1%
03:00
Voelt als: 6.2°
994.5 hPa 0.6 mm 7.2°
4
1%
06:00
Voelt als: 6.9°
995.2 hPa 0.4 mm 6.9°
4
1%
09:00
10°
996.4 hPa 0.5 mm 6.8°
4
1%
12:00
12°
998.3 hPa   5.9°
4
1%
15:00
14°
999.1 hPa 0.3 mm 7.2°
3
1%
18:00
14°
999.8 hPa 0.6 mm 8.1°
3
1%
21:00
11°
1001.2 hPa 1.4 mm 9.2°
2
1%
Midzomernacht Zondag 24 Jun
00:00
Voelt als: 7.9°
1003.1 hPa   8.1°
3
1%
03:00
Voelt als: 6.0°
1004.3 hPa 0.1 mm 6.9°
3
1%
06:00
Voelt als: 6.5°
1005.1 hPa   6.5°
3
1%
09:00
11°
1005.6 hPa 0.2 mm 6.6°
3
1%
12:00
11°
1006.0 hPa 0.4 mm 6.8°
2
1%
15:00
14°
1005.7 hPa 0.6 mm 5.6°
3
1%
18:00
16°
1005.3 hPa 0.1 mm 4.9°
2
1%
21:00
14°
1005.1 hPa 0.2 mm 6.7°
1
1%
Midzomernacht Maandag 25 Jun
00:00
Voelt als: 8.9°
1005.7 hPa   5.5°
1
0%
03:00
1005.8 hPa   5.1°
1
0%
09:00
11°
1005.8 hPa 0.2 mm 7.3°
2
1%
15:00
17°
1005.5 hPa   3.9°
2
0%
21:00
17°
1004.8 hPa   5.0°
3
1%
Midzomernacht Dinsdag 26 Jun
03:00
Voelt als: 7.1°
1003.6 hPa   5.1°
2
1%
09:00
Voelt als: 8.2°
1002.0 hPa 3.4 mm 8.8°
2
1%
15:00
14°
1002.7 hPa 6.7 mm 11.1°
2
1%
21:00
13°
1004.4 hPa 5.8 mm 11.0°
3
1%
Midzomernacht Woensdag 27 Jun
03:00
Voelt als: 7.0°
1007.6 hPa 0.1 mm 8.0°
2
0%
09:00
14°
1008.3 hPa   8.7°
2
0%
15:00
12°
1006.5 hPa 0.4 mm 7.2°
5
1%
21:00
16°
1008.4 hPa 1.5 mm 9.8°
1
46%
Midzomernacht Donderdag 28 Jun
03:00
10°
1009.1 hPa 0.3 mm 7.6°
1
33%
09:00
15°
1009.5 hPa 0.1 mm 8.6°
1
39%
15:00
18°
1009.2 hPa 0.7 mm 8.3°
1
40%
21:00
16°
1009.5 hPa 0.6 mm 8.7°
1
44%
Midzomernacht Vrijdag 29 Jun
03:00
10°
1010.4 hPa 0.9 mm 6.3°
0
31%
09:00
14°
1010.5 hPa 0.7 mm 7.1°
0
31%
15:00
19°
1009.8 hPa 1.2 mm 7.0°
1
32%
21:00
17°
1009.3 hPa 0.4 mm 8.4°
1
33%
Midzomernacht Zaterdag 30 Jun
03:00
10°
1009.9 hPa 0.2 mm 6.6°
0
35%
09:00
14°
1009.9 hPa 0.4 mm 7.2°
1
36%
15:00
19°
1009.2 hPa 0.3 mm 7.3°
1
37%
21:00
17°
1008.8 hPa 0.3 mm 9.1°
1
44%
Midzomernacht Zondag 01 Jul
03:00
10°
1009.4 hPa 0.3 mm 7.4°
0
45%
09:00
15°
1009.2 hPa 0.7 mm 9.2°
0
46%
15:00
20°
1008.8 hPa 0.8 mm 10.1°
0
51%
21:00
17°
1008.6 hPa 0.7 mm 11.1°
0
59%
Midzomernacht Maandag 02 Jul
03:00
12°
1009.5 hPa 0.4 mm 9.0°
1
53%
09:00
15°
1009.5 hPa 0.2 mm 9.3°
1
52%
15:00
19°
1009.1 hPa 0.7 mm 9.6°
1
49%
21:00
18°
1008.6 hPa 1.1 mm 10.8°
0
44%
  CAPE Lifted Index Hail Supercell Tornado SRH 3km CL BTM PRES CL TOP PRES Swiss DWD icon SMHI TS
Midzomernacht Vandaag
02:00 0 J/kg 4.2 K 0 % 0 % 0 % 0 m²/s² 0 0 5.4 2
03:00 0 J/kg 3.8 K 0 % 0 % 0 % 0 m²/s² 0 0 4.97 3
04:00 0 J/kg 4.3 K 0 % 0 % 0 % 0 m²/s² 0 0 5.02 3
05:00 0 J/kg 4.0 K 0 % 0 % 0 % 0 m²/s² 0 0 4.54 3
06:00 0 J/kg 2.1 K 0 % 0 % 0 % 0 m²/s² 0 0 2.7 3
07:00 0 J/kg 0.1 K 0 % 0 % 0 % 0 m²/s² 0 0 0.31 3
08:00 46 J/kg -2.0 K 0 % 0 % 0 % 0 m²/s² 0 0 -0.8 3
09:00 151 J/kg -1.6 K 0 % 0 % 0 % 0 m²/s² 0 0 -0.64 61
10:00 475 J/kg -2.6 K 0 % 0 % 0 % 0 m²/s² 0 0 -1.07 3
11:00 580 J/kg -2.9 K 0 % 0 % 0 % 0 m²/s² 0 0 -0.62 3
12:00 740 J/kg -3.2 K 0 % 0 % 0 % 0 m²/s² 0 0 -1.04 3
13:00 832 J/kg -3.5 K 0 % 0 % 0 % 0 m²/s² 0 0 -2.81 80
14:00 8 J/kg 4.6 K 0 % 0 % 0 % 0 m²/s² 0 0 4.72 95
15:00 0 J/kg 2.3 K 0 % 0 % 0 % 0 m²/s² 0 0 7.7 81
16:00 338 J/kg -1.1 K 0 % 0 % 0 % 0 m²/s² 0 0 2.26 61
17:00 179 J/kg -0.4 K 0 % 0 % 0 % 0 m²/s² 0 0 1.01 80
18:00 46 J/kg 0.2 K 0 % 0 % 0 % 0 m²/s² 0 0 1.67 2
19:00 9 J/kg 1.4 K 0 % 0 % 0 % 0 m²/s² 0 0 3.17 2
20:00 25 J/kg 1.4 K 0 % 0 % 0 % 0 m²/s² 0 0 3.68 2
21:00 27 J/kg 1.6 K 0 % 0 % 0 % 0 m²/s² 0 0 2.71 2
22:00 19 J/kg 2.0 K 0 % 0 % 0 % 0 m²/s² 0 0 3.38 3
23:00 12 J/kg 1.5 K 0 % 0 % 0 % 0 m²/s² 0 0 3.51 2
Midzomernacht Morgen
00:00 0 J/kg 1.4 K 0 % 0 % 0 % 0 m²/s² 0 0 3.17 3
01:00 0 J/kg 1.9 K 0 % 0 % 0 % 0 m²/s² 0 0 3.85 3
02:00 0 J/kg 1.4 K 0 % 0 % 0 % 0 m²/s² 0 0 4.43 3
03:00 0 J/kg 0.5 K 0 % 0 % 0 % 0 m²/s² 0 0 3.95 3
04:00 0 J/kg -0.3 K 0 % 0 % 0 % 0 m²/s² 0 0 2.79 3
05:00 0 J/kg -0.4 K 0 % 0 % 0 % 0 m²/s² 0 0 2.72 3
06:00 0 J/kg -0.6 K 0 % 0 % 0 % 0 m²/s² 0 0 2.25 3
07:00 9 J/kg -0.9 K 0 % 0 % 0 % 0 m²/s² 0 0 1.44 3
08:00 69 J/kg -0.7 K 0 % 0 % 0 % 0 m²/s² 0 0 1.19 2
09:00 73 J/kg 0.0 K 0 % 0 % 0 % 0 m²/s² 0 0 1.95 2
10:00 138 J/kg -0.4 K 0 % 0 % 0 % 0 m²/s² 0 0 2.09 80
11:00 154 J/kg -0.2 K 0 % 0 % 0 % 0 m²/s² 0 0 1.93 80
12:00 115 J/kg -0.1 K 0 % 0 % 0 % 0 m²/s² 0 0 0.08 3
13:00 213 J/kg -0.1 K 0 % 0 % 0 % 0 m²/s² 0 0 0.2 3
14:00 152 J/kg 0.3 K 0 % 0 % 0 % 0 m²/s² 0 0 0.75 3
15:00 311 J/kg -0.7 K 0 % 0 % 0 % 0 m²/s² 0 0 -0.49 3
16:00 177 J/kg 0.5 K 0 % 0 % 0 % 0 m²/s² 0 0 0.62 3
17:00 99 J/kg 1.7 K 0 % 0 % 0 % 0 m²/s² 0 0 2 3
18:00 126 J/kg 0.6 K 0 % 0 % 0 % 0 m²/s² 0 0 1.71 3
19:00 110 J/kg 0.4 K 0 % 0 % 0 % 0 m²/s² 0 0 1.99 61
20:00 42 J/kg 1.3 K 0 % 0 % 0 % 0 m²/s² 0 0 3.31 61
21:00 41 J/kg 1.7 K 0 % 0 % 0 % 0 m²/s² 0 0 3.59 61
22:00 6 J/kg 2.5 K 0 % 0 % 0 % 0 m²/s² 0 0 3.7 61
23:00 0 J/kg 3.9 K 0 % 0 % 0 % 0 m²/s² 0 0 5.52 61
Midzomernacht Woensdag 20 Jun
00:00 0 J/kg 4.3 K 0 % 0 % 0 % 0 m²/s² 0 0 6.13 61
01:00 0 J/kg 2.7 K 0 % 0 % 0 % 0 m²/s² 0 0 4.26 61
02:00 0 J/kg 0.9 K 0 % 0 % 0 % 0 m²/s² 0 0 2.67 61
03:00 0 J/kg 1.8 K 0 % 0 % 0 % 0 m²/s² 0 0 4.74 61
04:00 0 J/kg 2.1 K 0 % 0 % 0 % 0 m²/s² 0 0 6.03 61
05:00 0 J/kg 2.0 K 0 % 0 % 0 % 0 m²/s² 0 0 5.81 51
06:00 0 J/kg 2.1 K 0 % 0 % 0 % 0 m²/s² 0 0 5.37 3
07:00 0 J/kg 2.7 K 0 % 0 % 0 % 0 m²/s² 0 0 5.79 3
08:00 0 J/kg 2.4 K 0 % 0 % 0 % 0 m²/s² 0 0 5.01 3
09:00 6 J/kg 1.5 K 0 % 0 % 0 % 0 m²/s² 0 0 3.81 3
10:00 39 J/kg 0.8 K 0 % 0 % 0 % 0 m²/s² 0 0 3.17 3
11:00 98 J/kg 0.1 K 0 % 0 % 0 % 0 m²/s² 0 0 1.9 3
12:00 152 J/kg -0.5 K 0 % 0 % 0 % 0 m²/s² 0 0 0.91 61
13:00 162 J/kg -0.8 K 0 % 0 % 0 % 0 m²/s² 0 0 0.79 3
14:00 243 J/kg -1.5 K 0 % 0 % 0 % 0 m²/s² 0 0 0.09 80
15:00 307 J/kg -1.9 K 0 % 0 % 0 % 0 m²/s² 0 0 -0.34 3
16:00 352 J/kg -2.1 K 0 % 0 % 0 % 0 m²/s² 0 0 -0.18 3
17:00 368 J/kg -2.1 K 0 % 0 % 0 % 0 m²/s² 0 0 0.36 80
18:00 341 J/kg -1.8 K 0 % 0 % 0 % 0 m²/s² 0 0 -0.24 61
19:00 417 J/kg -2.4 K 0 % 0 % 0 % 0 m²/s² 0 0 -0.78 61
20:00 216 J/kg -1.3 K 0 % 0 % 0 % 0 m²/s² 0 0 0.32 3
21:00 358 J/kg -2.0 K 0 % 0 % 0 % 0 m²/s² 0 0 -0.26 3
22:00 393 J/kg -2.3 K 0 % 0 % 0 % 0 m²/s² 0 0 -0.32
23:00 301 J/kg -1.9 K 0 % 0 % 0 % 0 m²/s² 0 0 -0.49
Midzomernacht Donderdag 21 Jun
00:00 309 J/kg -2.0 K 0 % 0 % 0 % 0 m²/s² 0 0 0.04
01:00 142 J/kg -0.8 K 0 % 0 % 0 % 0 m²/s² 0 0 0.82
Temp Baro Wind Neerslag
  EWN Forecast EWN WRFDA DWD ICON FMI HIRLAM MET Norway GFS
Midzomernacht Vandaag
03:00 11.0° 1013.7 hPa 1.5 m/s 0.0 mm 14.2° 1011.9 hPa 3.3 m/s 0.0 mm 13.5° 1013.4 hPa 1.8 m/s -2.0 mm 8.8° 1013.9 hPa 1.2 m/s 0.0 mm 12.0° 1013.6 hPa 2.1 m/s
06:00 12.5° 1010.9 hPa 2.4 m/s 0.0 mm 16.8° 1009.4 hPa 3.9 m/s 0.0 mm 15.7° 1011.3 hPa 2.3 m/s 0.0 mm 9.9° 1010.6 hPa 1.5 m/s 0.0 mm 15.8° 1011.3 hPa 3.6 m/s
09:00 15.8° 1008.0 hPa 2.8 m/s 0.3 mm 20.6° 1006.4 hPa 6.9 m/s 0.3 mm 16.5° 1008.8 hPa 2.5 m/s 0.1 mm 15.4° 1007.4 hPa 2.0 m/s 0.0 mm 15.2° 1008.8 hPa 3.7 m/s
12:00 17.1° 1005.3 hPa 4.1 m/s 0.2 mm 20.8° 1003.0 hPa 8.1 m/s 1.0 mm 19.4° 1006.3 hPa 4.4 m/s 0.2 mm 16.4° 1004.6 hPa 3.2 m/s 0.0 mm 17.8° 1005.5 hPa 5.0 m/s
15:00 15.6° 1003.1 hPa 3.1 m/s 9.2 mm 15.4° 1001.7 hPa 3.9 m/s 20.9 mm 15.6° 1004.9 hPa 2.6 m/s 6.7 mm 16.6° 1002.0 hPa 2.9 m/s 0.0 mm 15.2° 1003.5 hPa 3.3 m/s
18:00 15.5° 1002.1 hPa 4.5 m/s 10.2 mm 16.4° 1000.7 hPa 7.2 m/s 40.3 mm 15.8° 1003.3 hPa 4.1 m/s 2.5 mm 14.4° 1002.2 hPa 4.2 m/s 0.0 mm 15.1° 1002.4 hPa 6.1 m/s
21:00 14.2° 1001.1 hPa 4.6 m/s 0.0 mm 13.9° 999.7 hPa 7.2 m/s 40.3 mm 14.4° 1002.4 hPa 4.3 m/s 0.1 mm 14.6° 1001.1 hPa 4.1 m/s 0.0 mm 10.9° 1002.1 hPa 5.2 m/s
Midzomernacht Morgen
00:00 11.7° 1001.4 hPa 3.4 m/s 0.0 mm 12.2° 999.6 hPa 5.2 m/s 40.5 mm 12.7° 1002.1 hPa 3.1 m/s 0.1 mm 11.6° 1001.5 hPa 2.5 m/s 0.0 mm 10.4° 1002.4 hPa 4.6 m/s
03:00 11.3° 1001.0 hPa 2.8 m/s 0.0 mm 11.1° 999.7 hPa 4.2 m/s 40.5 mm 12.6° 1002.0 hPa 2.5 m/s 0.1 mm 11.2° 1001.0 hPa 2.5 m/s 0.0 mm 10.0° 1002.0 hPa 3.6 m/s
06:00 12.1° 999.9 hPa 2.7 m/s 0.0 mm 13.6° 998.4 hPa 4.3 m/s 40.5 mm 13.1° 1000.8 hPa 2.5 m/s 0.0 mm 12.0° 999.5 hPa 2.0 m/s 0.0 mm 9.5° 1000.9 hPa 3.9 m/s
09:00 13.9° 997.8 hPa 3.2 m/s 2.8 mm 16.8° 996.2 hPa 6.3 m/s 40.5 mm 15.5° 999.1 hPa 3.2 m/s 0.2 mm 13.4° 997.8 hPa 2.9 m/s 0.0 mm 12.3° 999.1 hPa 3.6 m/s
12:00 15.6° 996.2 hPa 3.4 m/s 3.0 mm 15.8° 993.8 hPa 5.4 m/s 40.9 mm 17.1° 997.4 hPa 3.1 m/s 0.8 mm 15.4° 996.6 hPa 4.5 m/s 0.0 mm 17.1° 995.9 hPa 4.3 m/s
15:00 14.8° 994.0 hPa 3.8 m/s 0.0 mm 15.2° 990.6 hPa 6.3 m/s 49.0 mm 18.1° 994.6 hPa 4.2 m/s 0.1 mm 12.7° 995.6 hPa 3.5 m/s 0.0 mm 14.8° 993.0 hPa 4.7 m/s
18:00 14.4° 989.7 hPa 3.7 m/s 8.4 mm 14.4° 988.8 hPa 6.0 m/s 61.8 mm 16.3° 993.1 hPa 3.1 m/s 0.0 mm 11.4° 991.2 hPa 3.6 m/s
21:00 12.7° 989.3 hPa 3.3 m/s 19.9 mm 12.9° 989.3 hPa 6.1 m/s 63.3 mm 12.9° 990.7 hPa 3.4 m/s 1.7 mm 11.2° 990.2 hPa 2.9 m/s
Midzomernacht Woensdag 20 Jun
00:00 11.3° 988.6 hPa 2.9 m/s 15.0 mm 10.5° 991.0 hPa 5.0 m/s 63.5 mm 12.3° 988.5 hPa 2.9 m/s 4.8 mm 8.7° 990.3 hPa 2.0 m/s
03:00 10.4° 988.6 hPa 2.5 m/s 14.6 mm 10.1° 991.8 hPa 4.3 m/s 63.5 mm 10.4° 988.4 hPa 2.3 m/s 3.5 mm 8.8° 991.3 hPa 3.5 m/s
06:00 10.3° 988.5 hPa 3.3 m/s 19.7 mm 10.7° 992.8 hPa 6.1 m/s 63.5 mm 10.3° 988.0 hPa 2.9 m/s 0.3 mm 8.6° 992.5 hPa 4.5 m/s
09:00 10.9° 988.8 hPa 3.4 m/s 23.7 mm 13.1° 993.2 hPa 5.7 m/s 63.5 mm 10.7° 988.0 hPa 2.8 m/s 0.0 mm 12.7° 993.3 hPa 5.3 m/s
12:00 11.4° 989.9 hPa 3.9 m/s 23.0 mm 15.7° 993.8 hPa 7.0 m/s 63.5 mm 10.9° 988.6 hPa 2.0 m/s 0.1 mm 17.4° 993.8 hPa 6.1 m/s
15:00 11.7° 991.4 hPa 4.6 m/s 16.9 mm 15.3° 994.1 hPa 6.9 m/s 63.6 mm 11.4° 989.8 hPa 2.4 m/s 0.5 mm 16.8° 994.0 hPa 4.2 m/s
18:00 11.5° 991.4 hPa 4.2 m/s 15.2 mm 16.1° 994.4 hPa 6.2 m/s 64.7 mm 10.3° 990.7 hPa 3.7 m/s 1.2 mm 16.6° 994.4 hPa 4.7 m/s
21:00 11.1° 991.0 hPa 3.5 m/s 7.3 mm 13.8° 994.6 hPa 5.0 m/s 67.0 mm 10.4° 990.2 hPa 3.1 m/s 0.2 mm 15.9° 994.6 hPa 3.9 m/s
Midzomernacht Donderdag 21 Jun
00:00 12.0° 994.8 hPa 2.6 m/s 68.4 mm 12.0° 994.8 hPa 2.6 m/s 68.4 mm 11.9° 995.6 hPa 4.9 m/s
03:00 8.8° 995.6 hPa 4.4 m/s 69.1 mm 8.8° 995.6 hPa 4.4 m/s 69.1 mm 9.1° 996.5 hPa 4.3 m/s
06:00 10.4° 996.6 hPa 4.5 m/s 0.0 mm 10.4° 996.6 hPa 4.5 m/s 0.0 mm
09:00 14.6° 996.4 hPa 4.9 m/s 0.0 mm 14.6° 996.4 hPa 4.9 m/s 0.0 mm
12:00 17.3° 996.9 hPa 5.7 m/s 0.0 mm 17.3° 996.9 hPa 5.7 m/s 0.0 mm
15:00 17.3° 997.5 hPa 4.3 m/s 0.0 mm 17.3° 997.5 hPa 4.3 m/s 0.0 mm
18:00 16.1° 997.8 hPa 3.3 m/s 0.0 mm 16.1° 997.8 hPa 3.3 m/s 0.0 mm
21:00 13.4° 997.8 hPa 2.7 m/s 0.0 mm 13.4° 997.8 hPa 2.7 m/s 0.1 mm
Midzomernacht Vrijdag 22 Jun
00:00 9.5° 998.3 hPa 2.9 m/s 0.5 mm 9.5° 998.3 hPa 2.9 m/s 0.5 mm
03:00 8.8° 998.7 hPa 2.9 m/s 2.3 mm 8.8° 998.7 hPa 2.9 m/s 2.3 mm
06:00 8.5° 998.7 hPa 2.8 m/s 2.2 mm 8.5° 998.7 hPa 2.8 m/s 2.2 mm
09:00 9.9° 998.5 hPa 1.4 m/s 2.9 mm 9.9° 998.5 hPa 1.4 m/s 2.9 mm
12:00 13.0° 998.5 hPa 0.4 m/s 0.3 mm 13.0° 998.5 hPa 0.4 m/s 0.3 mm
15:00 13.9° 997.7 hPa 1.6 m/s 0.5 mm 13.9° 997.7 hPa 1.6 m/s 0.5 mm
18:00 15.1° 996.0 hPa 3.9 m/s 0.0 mm 15.1° 996.0 hPa 3.9 m/s 0.1 mm
21:00 13.1° 995.0 hPa 3.2 m/s 0.0 mm 13.1° 995.0 hPa 3.2 m/s 0.1 mm
Midzomernacht Zaterdag 23 Jun
00:00 10.8° 994.5 hPa 3.9 m/s 0.0 mm 10.8° 994.5 hPa 3.9 m/s 0.1 mm
03:00 8.6° 994.5 hPa 4.1 m/s 0.6 mm 8.6° 994.5 hPa 4.1 m/s 0.6 mm
06:00 9.0° 995.2 hPa 3.7 m/s 0.4 mm 9.0° 995.2 hPa 3.7 m/s 0.4 mm
09:00 10.3° 996.4 hPa 3.7 m/s 0.5 mm 10.3° 996.4 hPa 3.7 m/s 0.5 mm
12:00 11.8° 998.3 hPa 3.6 m/s 0.0 mm 11.8° 998.3 hPa 3.6 m/s 0.1 mm
15:00 14.0° 999.1 hPa 3.4 m/s 0.3 mm 14.0° 999.1 hPa 3.4 m/s 0.3 mm
18:00 13.9° 999.8 hPa 3.5 m/s 0.6 mm 13.9° 999.8 hPa 3.5 m/s 0.6 mm
21:00 11.5° 1001.2 hPa 2.4 m/s 1.4 mm 11.5° 1001.2 hPa 2.4 m/s 1.4 mm
Midzomernacht Zondag 24 Jun
00:00 9.2° 1003.1 hPa 2.5 m/s 0.0 mm 9.2° 1003.1 hPa 2.5 m/s 0.1 mm
03:00 7.7° 1004.3 hPa 2.7 m/s 0.1 mm 7.7° 1004.3 hPa 2.7 m/s 0.1 mm
06:00 8.3° 1005.1 hPa 3.1 m/s 0.0 mm 8.3° 1005.1 hPa 3.1 m/s 0.1 mm
09:00 10.6° 1005.6 hPa 2.8 m/s 0.2 mm 10.6° 1005.6 hPa 2.8 m/s 0.2 mm
12:00 11.3° 1006.0 hPa 2.4 m/s 0.4 mm 11.3° 1006.0 hPa 2.4 m/s 0.4 mm
15:00 14.0° 1005.7 hPa 2.6 m/s 0.6 mm 14.0° 1005.7 hPa 2.6 m/s 0.6 mm
18:00 15.6° 1005.3 hPa 2.4 m/s 0.1 mm 15.6° 1005.3 hPa 2.4 m/s 0.1 mm
21:00 13.6° 1005.1 hPa 1.2 m/s 0.2 mm 13.6° 1005.1 hPa 1.2 m/s 0.2 mm
Midzomernacht Maandag 25 Jun
00:00 9.0° 1005.7 hPa 1.2 m/s 0.0 mm 9.0° 1005.7 hPa 1.2 m/s 0.0 mm
03:00 7.5° 1005.8 hPa 0.6 m/s 0.0 mm 7.5° 1005.8 hPa 0.6 m/s 0.0 mm
09:00 11.1° 1005.8 hPa 1.5 m/s 0.2 mm 11.1° 1005.8 hPa 1.5 m/s 0.2 mm
15:00 17.3° 1005.5 hPa 1.7 m/s 0.0 mm 17.3° 1005.5 hPa 1.7 m/s 0.0 mm
21:00 16.7° 1004.8 hPa 2.6 m/s 0.0 mm 16.7° 1004.8 hPa 2.6 m/s 0.0 mm
Midzomernacht Dinsdag 26 Jun
03:00 8.2° 1003.6 hPa 2.0 m/s 0.0 mm 8.2° 1003.6 hPa 2.0 m/s 0.0 mm
09:00 9.5° 1002.0 hPa 2.5 m/s 3.0 mm 9.5° 1002.0 hPa 2.5 m/s 3.0 mm
15:00 14.0° 1002.7 hPa 2.5 m/s 4.0 mm 14.0° 1002.7 hPa 2.5 m/s 4.0 mm
21:00 12.7° 1004.4 hPa 3.3 m/s 3.2 mm 12.7° 1004.4 hPa 3.3 m/s 3.2 mm
Midzomernacht Woensdag 27 Jun
03:00 8.3° 1007.6 hPa 2.3 m/s 0.0 mm 8.3° 1007.6 hPa 2.3 m/s 0.1 mm
09:00 13.6° 1008.3 hPa 2.0 m/s 0.0 mm 13.6° 1008.3 hPa 2.0 m/s 0.0 mm
15:00 12.5° 1006.5 hPa 4.7 m/s 0.4 mm 12.5° 1006.5 hPa 4.7 m/s 0.4 mm
21:00 16.1° 1008.4 hPa 1.3 m/s 1.5 mm
Midzomernacht Donderdag 28 Jun
03:00 10.0° 1009.1 hPa 0.9 m/s 0.3 mm
09:00 14.6° 1009.5 hPa 0.7 m/s 0.1 mm
15:00 18.3° 1009.2 hPa 1.4 m/s 0.7 mm
21:00 16.1° 1009.5 hPa 0.8 m/s 0.6 mm
Midzomernacht Vrijdag 29 Jun
03:00 9.6° 1010.4 hPa 0.4 m/s 0.9 mm
09:00 14.5° 1010.5 hPa 0.3 m/s 0.7 mm
15:00 18.5° 1009.8 hPa 0.9 m/s 1.2 mm
21:00 16.6° 1009.3 hPa 0.5 m/s 0.4 mm
Midzomernacht Zaterdag 30 Jun
03:00 10.1° 1009.9 hPa 0.5 m/s 0.2 mm
09:00 14.3° 1009.9 hPa 0.9 m/s 0.4 mm
15:00 19.2° 1009.2 hPa 1.3 m/s 0.3 mm
21:00 16.8° 1008.8 hPa 0.7 m/s 0.3 mm
Midzomernacht Zondag 01 Jul
03:00 10.5° 1009.4 hPa 0.3 m/s 0.3 mm
09:00 15.4° 1009.2 hPa 0.4 m/s 0.7 mm
15:00 19.6° 1008.8 hPa 0.1 m/s 0.8 mm
21:00 17.2° 1008.6 hPa 0.2 m/s 0.7 mm
Midzomernacht Maandag 02 Jul
03:00 11.8° 1009.5 hPa 0.8 m/s 0.4 mm
09:00 15.1° 1009.5 hPa 1.1 m/s 0.2 mm
15:00 19.4° 1009.1 hPa 0.6 m/s 0.7 mm
21:00 17.6° 1008.6 hPa 0.4 m/s 1.1 mm
FMI Hirlam - 7.5 km EWN WRFDA - 12 km DWD ICON - 7 km GFS - 25 km Basiskaart






























































Updatetijd (Europe/Amsterdam) Resolutie Lengte Stap
FMI Hirlam 19:00, 01:00, 07:00, 13:00 7.5 km 49h 1h
EWN WRFDA 21:30, 03:30, 09:30, 15:30 12 km 73h 1h
DWD ICON 19:00, 01:00, 07:00, 13:00 7 km 75h 1h
GFS 21:15, 03:15, 09:15, 15:15 25 km 237h 3h
30+ mm
25-30 mm
20-25 mm
15-20 mm
10-15 mm
6-10 mm
4-6 mm
2-4 mm
1-2 mm
0.5-1 mm
0.2-0.5 mm
0.1-0.2 mm
30+ mm
25-30 mm
20-25 mm
15-20 mm
10-15 mm
6-10 mm
4-6 mm
2-4 mm
1-2 mm
0.5-1 mm
0.2-0.5 mm
0.1-0.2 mm
Sneeuwval
Natte sneeuw
Hagel
Vorst
30+ mm
25-30 mm
20-25 mm
15-20 mm
10-15 mm
6-10 mm
4-6 mm
2-4 mm
1-2 mm
0.5-1 mm
0.2-0.5 mm
0.1-0.2 mm
Sneeuwval
Natte sneeuw
Hagel
Vorst
Onweer
50 mm
40 mm
30 mm
26 mm
22 mm
18 mm
14 mm
10 mm
9 mm
8 mm
7 mm
6 mm
5 mm
4.5 mm
4 mm
3.5 mm
3 mm
2.5 mm
2 mm
1.5 mm
1 mm
0.8 mm
0.6 mm
0.4 mm
0.2 mm
0.05 mm
35°
30°
25°
20°
15°
10°
-5°
-10°
-15°
-20°
-25°
-30°
-35°
120> km/h
105 km/h
90 km/h
75 km/h
60 km/h
50 km/h
40 km/h
30 km/h
20 km/h
10 km/h
0 km/h
2600 J/kg
2400 J/kg
2200 J/kg
2000 J/kg
1800 J/kg
1600 J/kg
1400 J/kg
1200 J/kg
1000 J/kg
800 J/kg
600 J/kg
400 J/kg
200 J/kg
70 dBZ
65 dBZ
60 dBZ
55 dBZ
50 dBZ
45 dBZ
40 dBZ
35 dBZ
30 dBZ
25 dBZ
20 dBZ
15 dBZ
10 dBZ
5 dBZ
-1 K
-2 K
-3 K
-4 K
-5 K
-6 K
-7 K
-8 K
-9 K